This is the latest recevied weather packets stored in our database for station/object N6DZK. If no packets are shown the sender has not sent any weather packets the latest 10 day(s).
| Time | Temp. | Humidity | Pressure | Rain* | Wind** | Luminosity | Snow |
|---|---|---|---|---|---|---|---|
| 1777824598 | 15.56° C | 71% | 1013.8 hPa | 0 mm | - | 313 W/m² | - |
| 1777824295 | 15.56° C | 72% | 1013.6 hPa | 0 mm | - | 265 W/m² | - |
| 1777823990 | 15.56° C | 72% | 1013.5 hPa | 0 mm | - | 199 W/m² | - |
| 1777823688 | 15.56° C | 71% | 1013.6 hPa | 0 mm | - | 167 W/m² | - |
| 1777823384 | 15.56° C | 72% | 1013.6 hPa | 0 mm | - | 159 W/m² | - |
| 1777823083 | 15.56° C | 73% | 1013.3 hPa | 0 mm | - | 152 W/m² | - |
| 1777822780 | 15.56° C | 73% | 1013.5 hPa | 0 mm | - | 210 W/m² | - |
| 1777822478 | 15.56° C | 73% | 1013.4 hPa | 0 mm | - | 211 W/m² | - |
| 1777822175 | 15° C | 77% | 1013.4 hPa | 0 mm | - | 234 W/m² | - |
| 1777821872 | 14.44° C | 76% | 1013.2 hPa | 0 mm | - | 194 W/m² | - |
| 1777821570 | 14.44° C | 75% | 1013.2 hPa | 0 mm | - | 159 W/m² | - |
| 1777821268 | 14.44° C | 77% | 1013.3 hPa | 0 mm | - | 162 W/m² | - |
| 1777820965 | 14.44° C | 78% | 1013.2 hPa | 0 mm | - | 133 W/m² | - |
| 1777820661 | 13.89° C | 79% | 1013.2 hPa | 0 mm | - | 152 W/m² | - |
| 1777820357 | 13.89° C | 79% | 1013 hPa | 0 mm | - | 125 W/m² | - |
| 1777820055 | 13.89° C | 79% | 1013.2 hPa | 0 mm | - | 125 W/m² | - |
| 1777819751 | 13.33° C | 82% | 1013.3 hPa | 0 mm | - | 137 W/m² | - |
| 1777819450 | 13.33° C | 82% | 1013.2 hPa | 0 mm | - | 124 W/m² | - |
| 1777819148 | 12.78° C | 83% | 1013.1 hPa | 0 mm | - | 75 W/m² | - |
| 1777818844 | 12.78° C | 83% | 1013.3 hPa | 0 mm | - | 58 W/m² | - |
| 1777818540 | 12.78° C | 83% | 1013 hPa | 0 mm | - | 54 W/m² | - |
| 1777818238 | 12.78° C | 83% | 1013 hPa | 0 mm | - | 48 W/m² | - |
| 1777817933 | 12.78° C | 84% | 1012.8 hPa | 0 mm | - | 42 W/m² | - |
| 1777817631 | 12.78° C | 84% | 1012.6 hPa | 0 mm | - | 41 W/m² | - |
| 1777817327 | 12.78° C | 84% | 1012.8 hPa | 0 mm | - | 35 W/m² | - |
* Rain latest hour (hover to see other rain measurements)
** Current wind speed in m/s (hover to see current wind gust speed)